sat.trackr.live / text

‹ back to catalog

IRIDE-MS2-HEO-8

NORAD 64587 · 2025-135BM

PAYLOAD ACTIVE UNKNOWN

§ Identity

Operator
Country
IT
Launch date
2025-06-23
Launch site
AFWTR
Launch vehicle
Mass (kg)
RCS (m²)

External: N2YO · Heavens-Above · Gunter

§ Orbital elements

Epoch: 2026-05-25T04:50:10.080384Z

Period
96.52 min
Inclination
97.7709°
Eccentricity
0.0002977
Mean motion
14.91851216 rev/d
Perigee alt
590.1 km
Apogee alt
594.2 km
Semi-major
6,970.3 km
B*
1.7614e-4
RAAN
260.0104°
Arg perigee
80.5291°
Mean anomaly
279.6264°
Rev number
5,047

§ Raw data

IRIDE-MS2-HEO-81 64587U 25135BM  26145.20150556  .00001723  00000+0  17614-3 0  99922 64587  97.7709 260.0104 0002977  80.5291 279.6264 14.91851216 50474

JSON: /api/v1/satellites/64587 · /tle

For live sub-satellite position, see the globe view (requires WebGL).

§ Visibility from observer

Set your observer location to see the next 7 days of passes ≥ 10°. The values pass through the URL so the page stays shareable.

No JS? Fill the form by hand. The geolocation button needs JavaScript.

§ Radio — SatNOGS DB

ModeDescriptionDownlinkUplink
FM S-band telemetry 2.265 GHz

1 transmitter · refreshed weekly from db.satnogs.org